Tracking 28790 objects as of 18-Apr-2024
HD Live streaming from Space Station
objects crossing your sky now

STARLINK-1307

Track STARLINK-1307 now!
10-day predictions
STARLINK-1307 is classified as:


NORAD ID: 45397
Int'l Code: 2020-019AP
Perigee: 553.5 km
Apogee: 555.3 km
Inclination: 53.1 °
Period: 95.6 minutes
Semi major axis: 6925 km
RCS: Unknown
Launch date: March 18, 2020
Source: United States (US)
Launch site: AIR FORCE EASTERN TEST RANGE (AFETR)
Your satellite tracking list
Your tracking list is empty




NASA's NSSDC Master Catalog

Two Line Element Set (TLE):
1 45397U 20019AP  24109.11105533 -.00004675  00000-0 -29526-3 0  9996
2 45397  53.0557   6.7340 0001339  77.6530 282.4608 15.06389450225740
Source of the keplerian elements: AFSPC